Wind_Speed
41 40 39 39 39 37 37 38 37 36 37 38 39 40 40 40 39 39 39 38 36 36 35 33 31 32 31 31 32 32 32 32 32 32 33 33 32 30 30 29 28 27
40 40 39 38 38 37 37 39 40 38 37 39 40 39 38 38 39 39 40 38 37 36 36 34 32 31 32 32 31 32 33 31 31 32 33 33 32 31 30 30 29 28
40 40 39 38 38 39 39 39 40 40 39 38 38 38 38 38 39 40 40 39 38 37 36 36 33 32 33 34 32 32 33 32 32 32 33 33 32 31 31 30 29 28
40 39 39 39 39 40 40 37 38 40 39 38 39 39 38 38 39 40 40 40 38 37 36 37 36 33 32 34 34 32 33 33 32 33 33 33 32 32 31 29 29 28
41 39 39 40 39 38 38 37 37 39 40 41 40 40 39 38 38 40 41 40 39 37 37 37 37 35 33 34 35 34 33 33 32 33 34 34 33 32 31 29 28 26
39 39 39 40 40 38 37 37 38 40 41 41 40 40 40 39 39 40 41 41 40 37 37 37 37 37 35 34 35 35 35 34 34 34 34 34 33 32 31 29 28 26
37 38 38 39 40 39 38 37 38 40 41 41 40 40 41 40 40 40 41 41 40 38 37 37 37 37 36 35 35 35 35 35 35 35 35 34 33 32 30 29 28 27
37 37 37 38 39 39 39 38 37 39 41 40 40 40 41 42 42 41 40 40 40 39 38 37 37 38 37 36 36 35 35 35 36 36 35 34 33 32 31 30 29 28
35 36 37 37 37 38 40 40 39 39 40 40 41 41 41 42 42 41 40 39 39 40 39 37 37 38 38 37 37 36 36 36 36 37 36 35 34 34 33 32 30 28
34 35 36 37 37 38 39 41 41 40 40 40 41 41 41 41 41 41 40 39 40 40 40 39 38 38 38 38 38 38 37 37 36 36 36 37 36 36 35 33 31 29
34 35 36 38 39 39 39 41 42 42 41 40 41 41 41 41 41 41 40 40 42 42 41 40 39 38 38 39 39 38 38 37 37 37 36 37 37 37 36 34 32 31
37 37 38 39 40 40 40 41 42 43 42 41 41 41 41 41 41 42 42 42 43 43 41 41 40 39 39 39 39 39 38 37 37 38 37 37 37 37 36 35 33 32
39 40 40 40 40 41 41 42 42 42 41 41 41 41 41 41 41 42 43 44 44 43 42 42 41 39 39 39 39 39 39 38 38 38 38 37 37 36 35 35 34 33
42 43 43 42 42 42 43 43 43 41 40 40 41 41 42 42 43 43 43 43 43 42 42 42 41 41 41 40 40 40 40 39 38 38 38 37 36 36 35 34 33 33
42 43 42 41 41 41 42 44 43 41 41 41 40 41 42 43 44 44 43 41 42 42 41 41 42 43 43 43 41 41 41 40 39 39 39 37 36 35 36 35 34 33
39 41 40 38 37 39 41 42 42 41 41 40 41 42 43 43 43 43 42 42 42 42 41 42 44 45 46 45 44 42 41 40 39 39 39 38 36 35 35 35 35 34
38 39 39 38 37 38 39 40 40 40 40 40 41 42 42 42 42 42 43 44 44 43 42 43 45 47 47 46 45 45 44 41 40 39 39 39 37 35 35 35 34 34
39 39 38 38 38 38 38 39 38 38 39 40 41 42 42 42 42 43 43 44 44 43 43 44 46 47 47 46 46 47 46 44 41 40 38 38 38 37 36 35 34 32
38 38 37 37 37 38 39 38 38 38 39 40 41 42 42 42 42 44 44 44 44 43 44 46 46 47 47 47 46 47 48 46 42 41 40 39 39 38 37 36 35 33
39 39 39 38 37 37 38 37 38 38 39 40 42 42 42 42 42 43 44 44 44 44 45 46 47 47 48 49 47 47 50 48 43 42 41 40 39 39 38 37 37 36
33 35 38 40 39 38 38 38 38 39 39 40 40 41 42 43 43 44 44 45 45 45 45 44 46 47 48 49 49 48 51 49 44 42 42 40 40 40 39 39 39 38
27 29 31 34 37 38 38 38 38 38 39 40 40 41 42 43 43 44 44 45 46 46 44 43 45 46 47 49 49 49 51 50 44 42 42 41 40 40 39 40 40 39
27 32 33 32 32 34 37 39 40 39 39 40 39 39 40 41 42 43 44 45 46 45 44 44 45 46 47 49 49 50 51 49 44 42 41 40 41 40 39 39 39 40
25 33 38 37 33 32 34 36 37 38 39 40 41 40 40 42 42 42 43 45 46 47 47 46 45 46 48 49 49 51 53 50 44 40 39 39 39 39 39 39 39 40
25 28 36 41 40 36 36 37 38 39 38 39 40 41 41 41 41 41 41 43 45 48 49 47 45 45 47 48 49 51 53 50 44 40 38 38 37 37 37 38 39 40
30 25 26 36 42 43 42 39 38 38 39 39 39 40 40 39 40 40 40 41 42 45 46 46 44 44 46 49 50 51 54 51 45 42 40 38 37 36 35 36 38 39
Wind_Direction
200 197 196 198 201 204 204 205 207 205 203 202 203 205 207 208 208 209 210 212 214 212 210 211 213 211 208 207 207 206 206 207 208 208 208 209 211 212 213 213 214 215
200 197 197 198 201 206 207 206 207 206 206 206 207 208 208 209 209 209 210 211 213 213 211 211 213 213 211 208 206 205 205 207 208 208 208 208 211 212 213 214 215 217
200 198 198 199 202 208 210 208 206 207 208 208 208 209 209 209 209 210 211 211 212 212 212 212 212 214 213 211 209 206 205 206 207 208 207 208 210 211 213 215 216 218
199 198 199 201 204 209 211 210 207 207 208 208 209 209 209 208 209 209 210 211 211 212 212 212 212 212 213 212 211 208 207 208 209 208 207 207 210 212 213 214 216 218
199 199 200 204 207 210 211 211 209 208 207 208 209 209 208 208 208 208 209 210 211 212 212 211 211 212 213 212 211 210 208 208 209 209 207 207 209 212 213 214 216 218
200 201 202 205 208 211 212 212 211 209 208 208 209 208 208 208 208 209 209 210 211 212 211 211 210 212 213 213 211 211 209 208 208 208 207 207 209 212 214 215 216 216
201 203 204 206 209 211 213 213 213 212 210 208 208 207 207 208 209 210 210 210 210 211 212 211 211 211 212 212 211 210 210 209 208 207 207 208 209 211 213 213 212 212
203 205 206 208 209 210 212 213 213 213 211 209 207 207 207 207 209 210 210 210 210 212 212 211 211 211 211 211 211 210 210 209 208 207 206 206 207 208 209 208 209 211
205 207 209 210 210 210 211 212 213 213 212 210 208 207 207 208 209 210 210 210 211 212 213 212 211 210 210 210 211 211 210 209 208 208 206 205 205 205 204 204 207 211
207 209 210 212 213 212 212 212 213 214 213 211 209 208 207 208 209 210 209 209 211 212 212 212 211 210 209 210 210 211 211 209 208 208 208 207 206 205 204 206 209 212
208 209 210 212 213 214 213 213 213 214 214 212 210 208 208 208 208 208 208 208 210 212 212 212 211 210 209 210 210 211 212 211 209 207 208 207 206 206 207 209 211 213
207 209 211 212 213 214 214 214 214 214 214 212 211 209 209 208 207 207 208 209 211 213 213 212 211 210 210 210 210 211 211 211 210 208 208 207 207 207 209 211 212 214
207 209 212 213 213 214 214 215 215 215 214 213 212 210 209 208 207 207 209 209 211 213 214 213 211 210 211 211 210 210 211 210 209 208 208 208 208 209 210 213 215 216
208 210 212 213 214 214 214 214 214 214 214 214 214 212 210 209 208 209 209 209 210 212 214 213 211 210 211 212 211 210 210 209 208 207 207 209 210 211 212 214 216 218
209 211 213 214 214 215 215 214 213 212 213 214 214 213 212 211 211 210 209 209 210 212 214 213 211 210 211 211 211 209 207 207 207 206 206 208 209 210 212 214 215 217
214 215 216 217 217 218 217 215 212 211 211 213 215 214 213 212 211 210 209 209 210 212 213 212 211 211 212 212 211 208 205 204 205 205 206 207 207 207 209 211 213 215
217 218 220 220 220 220 219 217 213 210 210 212 215 215 214 213 211 210 210 210 211 212 212 211 211 212 212 212 212 209 205 203 203 203 205 206 206 206 207 208 210 214
218 218 220 221 219 219 220 219 215 211 210 212 214 216 215 213 211 211 211 211 212 212 212 211 212 212 211 211 212 209 205 203 202 202 204 206 206 206 206 206 209 212
218 218 219 220 218 217 219 218 216 213 211 211 213 215 215 214 212 211 211 212 212 212 213 213 213 212 210 210 212 210 206 203 202 202 204 206 206 206 206 207 208 209
220 218 217 218 217 216 217 217 216 215 213 212 212 213 214 214 213 212 211 212 212 213 213 214 214 214 212 212 213 211 207 204 201 201 204 206 206 206 206 206 206 206
227 223 219 216 216 215 215 216 216 216 215 214 213 213 213 214 213 213 212 212 213 214 214 214 215 215 213 213 214 211 206 203 201 201 203 205 206 205 205 205 206 207
242 240 235 225 218 214 213 214 215 215 214 214 214 214 214 215 214 214 213 212 213 214 215 216 216 216 214 212 212 210 204 200 200 200 201 203 203 203 204 205 205 207
243 242 244 240 230 220 215 214 214 214 214 213 214 214 214 214 215 214 214 213 214 214 214 216 217 216 214 212 211 207 201 198 198 199 199 201 202 201 202 202 204 206
242 232 233 237 237 230 224 221 215 213 214 213 213 214 215 215 214 215 215 214 214 214 214 215 217 217 215 211 209 206 201 198 198 198 197 199 200 200 200 200 202 206
258 238 226 226 230 231 231 230 223 216 213 214 214 215 216 216 215 214 215 215 215 215 215 215 216 217 215 211 209 206 202 198 197 196 196 197 197 197 197 198 201 204
269 260 235 222 223 226 228 230 230 224 216 212 214 216 216 217 217 215 215 217 217 216 216 215 216 217 215 211 209 207 201 197 195 195 195 196 195 194 193 194 197 200
Height
757 757 758 761 764 767 770 772 774 776 777 779 780 781 783 786 789 792 794 796 798 800 802 804 806 808 809 810 811 812 814 816 817 818 819 820 821 822 823 824 826 827
753 753 755 757 761 765 767 768 770 772 774 775 777 779 781 784 786 788 790 793 795 796 798 801 802 805 806 807 808 809 811 812 814 815 816 817 818 819 820 822 823 824
748 749 751 753 757 761 763 765 766 769 771 773 775 777 779 781 783 785 787 789 791 793 795 797 799 801 803 805 805 806 807 809 810 812 813 814 815 816 818 819 820 821
743 744 747 750 753 757 761 763 764 766 768 770 771 774 776 778 780 782 784 786 787 789 791 793 795 797 800 801 803 803 804 806 807 809 810 811 812 813 815 816 818 819
737 739 743 747 751 755 759 761 762 762 764 766 768 770 773 775 777 778 780 782 783 785 787 789 791 793 796 798 799 800 801 803 804 806 807 808 809 810 812 813 814 816
733 736 739 743 747 752 755 757 759 760 761 762 764 767 769 771 773 775 776 778 780 782 783 785 787 789 792 794 796 797 798 799 801 802 803 804 806 807 809 810 811 812
730 733 736 740 744 748 751 754 756 758 758 759 761 763 765 767 770 771 773 775 777 778 780 781 783 785 787 790 792 793 794 796 798 799 800 801 803 804 805 806 808 809
728 731 734 737 740 744 747 750 753 754 756 757 757 759 761 763 765 768 770 772 774 775 776 778 779 781 783 786 787 789 791 792 794 795 796 798 799 800 802 803 804 805
726 728 732 735 737 740 742 745 748 750 752 753 753 755 757 758 761 764 767 769 771 772 773 774 775 777 779 781 783 785 786 788 790 791 793 794 795 796 798 799 801 802
723 726 729 732 734 736 738 741 743 746 748 749 749 751 753 754 757 761 763 766 767 769 769 770 771 773 775 777 779 781 783 784 786 788 789 790 791 793 794 796 797 798
720 723 725 727 729 732 734 736 739 741 743 744 745 747 749 750 753 756 759 761 762 764 765 766 767 769 771 772 774 777 779 781 783 785 786 787 788 789 791 792 793 794
716 718 720 722 725 727 730 732 734 736 738 740 741 743 744 746 748 751 753 755 757 760 761 763 764 765 766 768 770 773 775 777 779 781 783 784 785 786 787 788 789 791
711 713 715 718 720 722 725 727 729 732 734 736 737 739 740 742 744 746 748 750 753 756 758 759 760 761 762 764 766 768 771 773 775 777 780 781 782 783 784 786 787 788
706 708 711 713 715 717 719 721 723 727 730 733 735 735 736 737 739 741 744 746 749 752 754 756 757 757 758 759 761 763 766 768 771 773 776 777 779 780 781 783 784 786
702 705 707 709 711 713 714 715 717 721 724 728 731 731 732 734 735 737 740 743 746 748 750 752 753 753 752 753 755 758 761 764 766 769 771 774 775 777 778 780 781 783
700 701 703 705 707 709 711 711 712 714 718 723 726 727 728 730 731 734 736 739 741 743 745 747 747 747 746 748 750 753 756 759 762 765 767 770 772 773 775 777 778 780
697 698 699 701 702 704 707 708 708 709 712 717 721 723 725 726 728 730 732 734 736 738 740 741 741 740 741 743 745 748 751 754 757 760 763 766 768 769 771 773 775 777
692 693 695 696 697 699 702 704 705 705 707 711 716 719 721 722 723 725 727 729 731 733 734 735 735 735 736 738 741 743 746 750 753 756 759 761 763 765 767 770 772 774
687 688 690 691 692 694 697 700 701 702 703 706 710 713 716 717 718 720 722 724 726 728 729 730 730 730 731 733 736 738 741 745 748 751 754 757 759 761 764 766 768 770
682 683 684 686 687 690 692 694 696 697 699 701 704 708 710 712 713 715 716 719 721 723 723 724 725 725 726 728 731 733 737 740 744 747 750 753 755 757 760 762 764 766
681 680 679 680 682 685 687 689 691 692 695 698 700 703 705 706 708 709 711 713 715 717 719 719 720 720 721 723 726 729 732 737 741 743 746 748 751 753 755 757 760 762
681 682 680 679 679 680 681 683 685 687 690 693 695 697 699 701 703 704 706 708 710 712 714 715 715 716 717 718 721 725 729 733 737 739 741 744 746 749 751 753 756 759
678 679 680 680 679 677 676 677 679 681 685 688 690 692 693 695 697 699 701 703 704 707 709 710 710 711 712 714 717 721 725 729 732 734 737 739 742 744 747 749 752 755
674 675 677 678 677 676 675 674 674 676 679 681 684 686 687 689 691 693 695 697 698 701 702 703 705 706 707 709 712 716 720 724 728 730 733 736 738 740 742 745 748 751
670 670 671 673 673 672 673 674 673 672 674 676 678 680 681 684 686 688 690 692 693 695 697 699 701 701 703 705 708 711 715 719 723 726 729 732 734 737 739 741 744 747
664 664 665 666 667 666 667 671 673 671 669 670 672 674 676 679 682 683 685 688 690 691 693 695 697 697 699 701 703 707 711 715 719 721 723 727 730 732 734 737 740 742